contact:dominique.lefevre@mio.osupytheas.fr, maurice.libes@osupytheas.fr, didier.mallarino@osupytheas.fr
Project:EMSO http://www.emso-fr.org/EMSO-France
Depth: 2436.0 m
Title:EMSO Ligure Ouest : Data MII capteur MICROCAT
DateTime_Computer,Latitude,Longitude,Temperature,Conductivity,Pressure,DateTime_Instrument
DateTime_Computer,Latitude,Longitude,degC,S m-1,dbar,DateTime_Instrument
2021-11-24T00:00:36Z,42.805,6.029,13.3042,4.60047,2470.32,2021-11-24T02:02:02Z
2021-11-24T00:03:39Z,42.805,6.029,13.3050,4.60059,2470.343,2021-11-24T02:05:05Z
2021-11-24T00:06:42Z,42.805,6.029,13.3046,4.60056,2470.357,2021-11-24T02:08:09Z
2021-11-24T00:09:45Z,42.805,6.029,13.3048,4.60064,2470.357,2021-11-24T02:11:12Z
2021-11-24T00:12:48Z,42.805,6.029,13.3049,4.60054,2470.366,2021-11-24T02:14:15Z
2021-11-24T00:15:51Z,42.805,6.029,13.3029,4.60067,2470.357,2021-11-24T02:17:18Z
2021-11-24T00:18:54Z,42.805,6.029,13.3014,4.60046,2470.366,2021-11-24T02:20:21Z
2021-11-24T00:21:57Z,42.805,6.029,13.3046,4.60057,2470.334,2021-11-24T02:23:24Z
2021-11-24T00:25:01Z,42.805,6.029,13.3051,4.60069,2470.334,2021-11-24T02:26:27Z
2021-11-24T00:28:04Z,42.805,6.029,13.3032,4.60061,2470.357,2021-11-24T02:29:30Z
2021-11-24T00:31:07Z,42.805,6.029,13.3035,4.60058,2470.31,2021-11-24T02:32:34Z
2021-11-24T00:34:10Z,42.805,6.029,13.3013,4.60043,2470.357,2021-11-24T02:35:37Z
2021-11-24T00:37:13Z,42.805,6.029,13.3002,4.60056,2470.32,2021-11-24T02:38:40Z
2021-11-24T00:40:16Z,42.805,6.029,13.3006,4.60064,2470.32,2021-11-24T02:41:43Z
2021-11-24T00:43:19Z,42.805,6.029,13.3034,4.60082,2470.343,2021-11-24T02:44:46Z
2021-11-24T00:46:22Z,42.805,6.029,13.3048,4.60070,2470.334,2021-11-24T02:47:49Z
2021-11-24T00:49:26Z,42.805,6.029,13.3051,4.60066,2470.357,2021-11-24T02:50:52Z
2021-11-24T00:52:29Z,42.805,6.029,13.3039,4.60054,2470.32,2021-11-24T02:53:55Z
2021-11-24T00:55:32Z,42.805,6.029,13.3031,4.60044,2470.343,2021-11-24T02:56:59Z
2021-11-24T00:58:35Z,42.805,6.029,13.3026,4.60039,2470.297,2021-11-24T03:00:02Z
2021-11-24T01:01:38Z,42.805,6.029,13.3000,4.60057,2470.366,2021-11-24T03:03:05Z
2021-11-24T01:04:41Z,42.805,6.029,13.2996,4.60047,2470.32,2021-11-24T03:06:08Z
2021-11-24T01:07:44Z,42.805,6.029,13.3006,4.60046,2470.357,2021-11-24T03:09:11Z
2021-11-24T01:10:47Z,42.805,6.029,13.3008,4.60044,2470.32,2021-11-24T03:12:14Z
2021-11-24T01:13:51Z,42.805,6.029,13.3037,4.60066,2470.343,2021-11-24T03:15:17Z
2021-11-24T01:16:54Z,42.805,6.029,13.3006,4.60046,2470.334,2021-11-24T03:18:20Z
2021-11-24T01:19:57Z,42.805,6.029,13.2998,4.60039,2470.32,2021-11-24T03:21:24Z
2021-11-24T01:23:00Z,42.805,6.029,13.3045,4.60057,2470.334,2021-11-24T03:24:27Z
2021-11-24T01:26:03Z,42.805,6.029,13.3021,4.60056,2470.334,2021-11-24T03:27:30Z
2021-11-24T01:29:06Z,42.805,6.029,13.2993,4.60036,2470.334,2021-11-24T03:30:33Z
2021-11-24T01:32:09Z,42.805,6.029,13.2991,4.60044,2470.297,2021-11-24T03:33:36Z
2021-11-24T01:35:12Z,42.805,6.029,13.2998,4.60040,2470.32,2021-11-24T03:36:39Z
2021-11-24T01:38:16Z,42.805,6.029,13.2997,4.60034,2470.366,2021-11-24T03:39:42Z
2021-11-24T01:41:19Z,42.805,6.029,13.2992,4.60035,2470.32,2021-11-24T03:42:45Z
2021-11-24T01:44:22Z,42.805,6.029,13.2990,4.60042,2470.334,2021-11-24T03:45:49Z
2021-11-24T01:47:25Z,42.805,6.029,13.2995,4.60041,2470.357,2021-11-24T03:48:52Z
2021-11-24T01:50:28Z,42.805,6.029,13.2990,4.60041,2470.32,2021-11-24T03:51:55Z
2021-11-24T01:53:31Z,42.805,6.029,13.2996,4.60031,2470.32,2021-11-24T03:54:58Z
2021-11-24T01:56:34Z,42.805,6.029,13.2996,4.60031,2470.32,2021-11-24T03:58:01Z
2021-11-24T01:59:37Z,42.805,6.029,13.2990,4.60029,2470.343,2021-11-24T04:01:04Z
2021-11-24T02:02:41Z,42.805,6.029,13.2996,4.60031,2470.343,2021-11-24T04:04:07Z
2021-11-24T02:05:44Z,42.805,6.029,13.2990,4.60028,2470.343,2021-11-24T04:07:10Z
2021-11-24T02:08:47Z,42.805,6.029,13.2994,4.60026,2470.357,2021-11-24T04:10:14Z
2021-11-24T02:11:50Z,42.805,6.029,13.2992,4.60023,2470.32,2021-11-24T04:13:17Z
2021-11-24T02:14:53Z,42.805,6.029,13.2993,4.60023,2470.297,2021-11-24T04:16:20Z
2021-11-24T02:17:56Z,42.805,6.029,13.2994,4.60021,2470.32,2021-11-24T04:19:23Z
2021-11-24T02:20:59Z,42.805,6.029,13.2993,4.60021,2470.343,2021-11-24T04:22:26Z
2021-11-24T02:24:02Z,42.805,6.029,13.2991,4.60021,2470.31,2021-11-24T04:25:29Z
2021-11-24T02:27:06Z,42.805,6.029,13.2996,4.60024,2470.334,2021-11-24T04:28:32Z
2021-11-24T02:30:09Z,42.805,6.029,13.2991,4.60021,2470.343,2021-11-24T04:31:35Z
2021-11-24T02:33:12Z,42.805,6.029,13.2996,4.60026,2470.297,2021-11-24T04:34:39Z
2021-11-24T02:36:15Z,42.805,6.029,13.2993,4.60028,2470.32,2021-11-24T04:37:42Z
2021-11-24T02:39:18Z,42.805,6.029,13.2994,4.60022,2470.297,2021-11-24T04:40:45Z
2021-11-24T02:42:21Z,42.805,6.029,13.2996,4.60023,2470.343,2021-11-24T04:43:48Z
2021-11-24T02:45:24Z,42.805,6.029,13.2994,4.60024,2470.334,2021-11-24T04:46:51Z
2021-11-24T02:48:27Z,42.805,6.029,13.2990,4.60025,2470.32,2021-11-24T04:49:54Z
2021-11-24T02:51:31Z,42.805,6.029,13.2993,4.60023,2470.31,2021-11-24T04:52:57Z
2021-11-24T02:54:34Z,42.805,6.029,13.2991,4.60026,2470.32,2021-11-24T04:56:00Z
2021-11-24T02:57:37Z,42.805,6.029,13.2993,4.60026,2470.31,2021-11-24T04:59:04Z
2021-11-24T03:00:40Z,42.805,6.029,13.2993,4.60024,2470.32,2021-11-24T05:02:07Z
2021-11-24T03:03:43Z,42.805,6.029,13.2995,4.60023,2470.32,2021-11-24T05:05:10Z
2021-11-24T03:06:46Z,42.805,6.029,13.2995,4.60029,2470.32,2021-11-24T05:08:13Z
2021-11-24T03:09:49Z,42.805,6.029,13.2993,4.60024,2470.32,2021-11-24T05:11:16Z
2021-11-24T03:12:52Z,42.805,6.029,13.2994,4.60026,2470.357,2021-11-24T05:14:19Z
2021-11-24T03:15:56Z,42.805,6.029,13.2992,4.60026,2470.31,2021-11-24T05:17:22Z
2021-11-24T03:18:59Z,42.805,6.029,13.2997,4.60031,2470.32,2021-11-24T05:20:25Z
2021-11-24T03:22:02Z,42.805,6.029,13.2995,4.60022,2470.297,2021-11-24T05:23:29Z
2021-11-24T03:25:05Z,42.805,6.029,13.2995,4.60024,2470.343,2021-11-24T05:26:32Z
2021-11-24T03:28:08Z,42.805,6.029,13.2994,4.60031,2470.297,2021-11-24T05:29:35Z
2021-11-24T03:31:11Z,42.805,6.029,13.2993,4.60024,2470.31,2021-11-24T05:32:38Z
2021-11-24T03:34:14Z,42.805,6.029,13.2991,4.60019,2470.31,2021-11-24T05:35:41Z
2021-11-24T03:37:17Z,42.805,6.029,13.2996,4.60030,2470.334,2021-11-24T05:38:44Z
2021-11-24T03:40:21Z,42.805,6.029,13.2993,4.60020,2470.32,2021-11-24T05:41:47Z
2021-11-24T03:43:24Z,42.805,6.029,13.2993,4.60026,2470.297,2021-11-24T05:44:50Z
2021-11-24T03:46:27Z,42.805,6.029,13.2996,4.60031,2470.297,2021-11-24T05:47:54Z
2021-11-24T03:49:30Z,42.805,6.029,13.2996,4.60026,2470.343,2021-11-24T05:50:57Z
2021-11-24T03:52:33Z,42.805,6.029,13.2992,4.60026,2470.31,2021-11-24T05:54:00Z
2021-11-24T03:55:36Z,42.805,6.029,13.2992,4.60026,2470.32,2021-11-24T05:57:03Z
2021-11-24T03:58:39Z,42.805,6.029,13.2992,4.60029,2470.297,2021-11-24T06:00:06Z
2021-11-24T04:01:42Z,42.805,6.029,13.2993,4.60024,2470.334,2021-11-24T06:03:09Z
2021-11-24T04:04:46Z,42.805,6.029,13.2994,4.60025,2470.32,2021-11-24T06:06:12Z
2021-11-24T04:07:49Z,42.805,6.029,13.2996,4.60025,2470.287,2021-11-24T06:09:15Z
2021-11-24T04:10:52Z,42.805,6.029,13.2998,4.60027,2470.297,2021-11-24T06:12:19Z
2021-11-24T04:13:55Z,42.805,6.029,13.2993,4.60027,2470.32,2021-11-24T06:15:22Z
2021-11-24T04:16:58Z,42.805,6.029,13.2996,4.60023,2470.343,2021-11-24T06:18:25Z
2021-11-24T04:20:01Z,42.805,6.029,13.2993,4.60031,2470.32,2021-11-24T06:21:28Z
2021-11-24T04:23:04Z,42.805,6.029,13.2996,4.60035,2470.334,2021-11-24T06:24:31Z
2021-11-24T04:26:07Z,42.805,6.029,13.2994,4.60033,2470.32,2021-11-24T06:27:34Z
2021-11-24T04:29:11Z,42.805,6.029,13.2994,4.60039,2470.297,2021-11-24T06:30:37Z
2021-11-24T04:32:14Z,42.805,6.029,13.2991,4.60045,2470.32,2021-11-24T06:33:40Z
2021-11-24T04:35:17Z,42.805,6.029,13.2995,4.60039,2470.32,2021-11-24T06:36:44Z
2021-11-24T04:38:20Z,42.805,6.029,13.2996,4.60039,2470.357,2021-11-24T06:39:47Z
2021-11-24T04:41:23Z,42.805,6.029,13.2994,4.60051,2470.32,2021-11-24T06:42:50Z
2021-11-24T04:44:26Z,42.805,6.029,13.2994,4.60039,2470.32,2021-11-24T06:45:53Z
2021-11-24T04:47:29Z,42.805,6.029,13.2996,4.60028,2470.343,2021-11-24T06:48:56Z
2021-11-24T04:50:32Z,42.805,6.029,13.3003,4.60026,2470.32,2021-11-24T06:51:59Z
2021-11-24T04:53:36Z,42.805,6.029,13.2993,4.60035,2470.366,2021-11-24T06:55:02Z
2021-11-24T04:56:39Z,42.805,6.029,13.2998,4.60042,2470.343,2021-11-24T06:58:05Z
2021-11-24T04:59:42Z,42.805,6.029,13.2996,4.60032,2470.343,2021-11-24T07:01:09Z
2021-11-24T05:02:45Z,42.805,6.029,13.2994,4.60043,2470.334,2021-11-24T07:04:12Z
2021-11-24T05:05:48Z,42.805,6.029,13.2996,4.60039,2470.334,2021-11-24T07:07:15Z
2021-11-24T05:08:51Z,42.805,6.029,13.2994,4.60044,2470.334,2021-11-24T07:10:18Z
2021-11-24T05:11:54Z,42.805,6.029,13.2998,4.60032,2470.343,2021-11-24T07:13:21Z
2021-11-24T05:14:57Z,42.805,6.029,13.2996,4.60039,2470.334,2021-11-24T07:16:24Z
2021-11-24T05:18:00Z,42.805,6.029,13.2995,4.60029,2470.357,2021-11-24T07:19:27Z
2021-11-24T05:21:04Z,42.805,6.029,13.2994,4.60029,2470.297,2021-11-24T07:22:30Z
2021-11-24T05:24:07Z,42.805,6.029,13.2994,4.60048,2470.343,2021-11-24T07:25:34Z
2021-11-24T05:27:10Z,42.805,6.029,13.2994,4.60039,2470.334,2021-11-24T07:28:37Z
2021-11-24T05:30:13Z,42.805,6.029,13.2996,4.60098,2470.366,2021-11-24T07:31:40Z
2021-11-24T05:33:16Z,42.805,6.029,13.2998,4.60056,2470.343,2021-11-24T07:34:43Z
2021-11-24T05:36:19Z,42.805,6.029,13.3004,4.60037,2470.366,2021-11-24T07:37:46Z
2021-11-24T05:39:22Z,42.805,6.029,13.3063,4.60079,2470.343,2021-11-24T07:40:49Z
2021-11-24T05:42:26Z,42.805,6.029,13.2993,4.60027,2470.357,2021-11-24T07:43:52Z
2021-11-24T05:45:29Z,42.805,6.029,13.3002,4.60043,2470.343,2021-11-24T07:46:55Z
2021-11-24T05:48:32Z,42.805,6.029,13.3008,4.60029,2470.32,2021-11-24T07:49:58Z
2021-11-24T05:51:35Z,42.805,6.029,13.3013,4.60031,2470.32,2021-11-24T07:53:02Z
2021-11-24T05:54:38Z,42.805,6.029,13.3005,4.60043,2470.39,2021-11-24T07:56:05Z
2021-11-24T05:57:41Z,42.805,6.029,13.3015,4.60038,2470.38,2021-11-24T07:59:08Z
2021-11-24T06:00:44Z,42.805,6.029,13.3016,4.60042,2470.38,2021-11-24T08:02:11Z
2021-11-24T06:03:47Z,42.805,6.029,13.3026,4.60039,2470.38,2021-11-24T08:05:14Z
2021-11-24T06:06:50Z,42.805,6.029,13.3015,4.60036,2470.366,2021-11-24T08:08:17Z
2021-11-24T06:09:54Z,42.805,6.029,13.3036,4.60044,2470.39,2021-11-24T08:11:20Z
2021-11-24T06:12:57Z,42.805,6.029,13.3014,4.60041,2470.366,2021-11-24T08:14:23Z
2021-11-24T06:16:00Z,42.805,6.029,13.3036,4.60060,2470.38,2021-11-24T08:17:27Z
2021-11-24T06:19:03Z,42.805,6.029,13.3018,4.60043,2470.404,2021-11-24T08:20:30Z
2021-11-24T06:22:06Z,42.805,6.029,13.2997,4.60052,2470.38,2021-11-24T08:23:33Z
2021-11-24T06:25:09Z,42.805,6.029,13.2998,4.60048,2470.427,2021-11-24T08:26:36Z
2021-11-24T06:28:12Z,42.805,6.029,13.2990,4.60047,2470.366,2021-11-24T08:29:39Z
2021-11-24T06:31:15Z,42.805,6.029,13.2997,4.60036,2470.404,2021-11-24T08:32:42Z
2021-11-24T06:34:19Z,42.805,6.029,13.2993,4.60043,2470.39,2021-11-24T08:35:45Z
2021-11-24T06:37:22Z,42.805,6.029,13.2996,4.60039,2470.413,2021-11-24T08:38:48Z
2021-11-24T06:40:25Z,42.805,6.029,13.2994,4.60029,2470.404,2021-11-24T08:41:52Z
2021-11-24T06:43:28Z,42.805,6.029,13.2991,4.60037,2470.427,2021-11-24T08:44:55Z
2021-11-24T06:46:31Z,42.805,6.029,13.2993,4.60040,2470.427,2021-11-24T08:47:58Z
2021-11-24T06:49:34Z,42.805,6.029,13.2992,4.60033,2470.45,2021-11-24T08:51:01Z
2021-11-24T06:52:37Z,42.805,6.029,13.2993,4.60067,2470.413,2021-11-24T08:54:04Z
2021-11-24T06:55:40Z,42.805,6.029,13.2994,4.60042,2470.437,2021-11-24T08:57:07Z
2021-11-24T06:58:44Z,42.805,6.029,13.2998,4.60031,2470.39,2021-11-24T09:00:10Z
2021-11-24T07:01:47Z,42.805,6.029,13.3009,4.60052,2470.45,2021-11-24T09:03:13Z
2021-11-24T07:04:50Z,42.805,6.029,13.3027,4.60039,2470.413,2021-11-24T09:06:17Z
2021-11-24T07:07:53Z,42.805,6.029,13.3023,4.60025,2470.437,2021-11-24T09:09:20Z
2021-11-24T07:10:56Z,42.805,6.029,13.3006,4.60094,2470.39,2021-11-24T09:12:23Z
2021-11-24T07:13:59Z,42.805,6.029,13.3006,4.60022,2470.46,2021-11-24T09:15:26Z
2021-11-24T07:17:02Z,42.805,6.029,13.3023,4.60024,2470.474,2021-11-24T09:18:29Z
2021-11-24T07:20:05Z,42.805,6.029,13.3009,4.60036,2470.413,2021-11-24T09:21:32Z
2021-11-24T07:23:09Z,42.805,6.029,13.3029,4.60037,2470.45,2021-11-24T09:24:35Z
2021-11-24T07:26:12Z,42.805,6.029,13.3038,4.60045,2470.46,2021-11-24T09:27:38Z
2021-11-24T07:29:15Z,42.805,6.029,13.3016,4.60036,2470.45,2021-11-24T09:30:42Z
2021-11-24T07:32:18Z,42.805,6.029,13.3027,4.60025,2470.45,2021-11-24T09:33:45Z
2021-11-24T07:35:21Z,42.805,6.029,13.3031,4.60025,2470.483,2021-11-24T09:36:48Z
2021-11-24T07:38:24Z,42.805,6.029,13.3034,4.60028,2470.497,2021-11-24T09:39:51Z
2021-11-24T07:41:27Z,42.805,6.029,13.3024,4.60026,2470.437,2021-11-24T09:42:54Z
2021-11-24T07:44:30Z,42.805,6.029,13.3054,4.60021,2470.413,2021-11-24T09:45:57Z
2021-11-24T07:47:34Z,42.805,6.029,13.3011,4.60028,2470.47,2021-11-24T09:49:00Z
2021-11-24T07:50:37Z,42.805,6.029,13.3009,4.60031,2470.46,2021-11-24T09:52:03Z
2021-11-24T07:53:40Z,42.805,6.029,13.3011,4.60034,2470.46,2021-11-24T09:55:07Z
2021-11-24T07:56:43Z,42.805,6.029,13.3026,4.60029,2470.46,2021-11-24T09:58:10Z
2021-11-24T07:59:46Z,42.805,6.029,13.3052,4.60048,2470.46,2021-11-24T10:01:13Z
2021-11-24T08:02:49Z,42.805,6.029,13.3039,4.60083,2470.483,2021-11-24T10:04:16Z
2021-11-24T08:05:52Z,42.805,6.029,13.3045,4.60068,2470.46,2021-11-24T10:07:19Z
2021-11-24T08:08:55Z,42.805,6.029,13.3014,4.60075,2470.483,2021-11-24T10:10:22Z
2021-11-24T08:11:59Z,42.805,6.029,13.3029,4.60046,2470.52,2021-11-24T10:13:25Z
2021-11-24T08:15:02Z,42.805,6.029,13.3019,4.60069,2470.483,2021-11-24T10:16:28Z
2021-11-24T08:18:05Z,42.805,6.029,13.3022,4.60092,2470.52,2021-11-24T10:19:32Z
2021-11-24T08:21:08Z,42.805,6.029,13.3036,4.60069,2470.474,2021-11-24T10:22:35Z
2021-11-24T08:24:11Z,42.805,6.029,13.3019,4.60048,2470.52,2021-11-24T10:25:38Z
2021-11-24T08:27:14Z,42.805,6.029,13.3024,4.60061,2470.52,2021-11-24T10:28:41Z
2021-11-24T08:30:17Z,42.805,6.029,13.3044,4.60062,2470.483,2021-11-24T10:31:44Z
2021-11-24T08:33:20Z,42.805,6.029,13.3032,4.60077,2470.544,2021-11-24T10:34:47Z
2021-11-24T08:36:24Z,42.805,6.029,13.3026,4.60041,2470.52,2021-11-24T10:37:50Z
2021-11-24T08:39:27Z,42.805,6.029,13.3036,4.60079,2470.567,2021-11-24T10:40:53Z
2021-11-24T08:42:30Z,42.805,6.029,13.3028,4.60062,2470.497,2021-11-24T10:43:57Z
2021-11-24T08:45:33Z,42.805,6.029,13.3011,4.60102,2470.497,2021-11-24T10:47:00Z
2021-11-24T08:48:36Z,42.805,6.029,13.3020,4.60102,2470.544,2021-11-24T10:50:03Z
2021-11-24T08:51:39Z,42.805,6.029,13.3014,4.60122,2470.52,2021-11-24T10:53:06Z
2021-11-24T08:54:42Z,42.805,6.029,13.3011,4.60129,2470.544,2021-11-24T10:56:09Z
2021-11-24T08:57:45Z,42.805,6.029,13.3012,4.60140,2470.507,2021-11-24T10:59:12Z
2021-11-24T09:00:49Z,42.805,6.029,13.3019,4.60121,2470.53,2021-11-24T11:02:15Z
2021-11-24T09:03:52Z,42.805,6.029,13.3026,4.60130,2470.507,2021-11-24T11:05:18Z
2021-11-24T09:06:55Z,42.805,6.029,13.3036,4.60059,2470.52,2021-11-24T11:08:22Z
2021-11-24T09:09:58Z,42.805,6.029,13.3051,4.60056,2470.52,2021-11-24T11:11:25Z
2021-11-24T09:13:01Z,42.805,6.029,13.3058,4.60053,2470.52,2021-11-24T11:14:28Z
2021-11-24T09:16:04Z,42.805,6.029,13.3051,4.60053,2470.52,2021-11-24T11:17:31Z
2021-11-24T09:19:07Z,42.805,6.029,13.3045,4.60053,2470.52,2021-11-24T11:20:34Z
2021-11-24T09:22:10Z,42.805,6.029,13.3063,4.60084,2470.553,2021-11-24T11:23:37Z
2021-11-24T09:25:14Z,42.805,6.029,13.3071,4.60045,2470.567,2021-11-24T11:26:40Z
2021-11-24T09:28:17Z,42.805,6.029,13.3084,4.60037,2470.544,2021-11-24T11:29:43Z
2021-11-24T09:31:20Z,42.805,6.029,13.3066,4.60060,2470.52,2021-11-24T11:32:47Z
2021-11-24T09:34:23Z,42.805,6.029,13.3060,4.60057,2470.544,2021-11-24T11:35:50Z
2021-11-24T09:37:26Z,42.805,6.029,13.3064,4.60059,2470.544,2021-11-24T11:38:53Z
2021-11-24T09:40:29Z,42.805,6.029,13.3073,4.60046,2470.544,2021-11-24T11:41:56Z
2021-11-24T09:43:32Z,42.805,6.029,13.3061,4.60039,2470.483,2021-11-24T11:44:59Z
2021-11-24T09:46:36Z,42.805,6.029,13.3056,4.60039,2470.52,2021-11-24T11:48:02Z
2021-11-24T09:49:39Z,42.805,6.029,13.3051,4.60059,2470.53,2021-11-24T11:51:05Z
2021-11-24T09:52:42Z,42.805,6.029,13.3055,4.60066,2470.591,2021-11-24T11:54:09Z
2021-11-24T09:55:45Z,42.805,6.029,13.3051,4.60057,2470.553,2021-11-24T11:57:12Z
2021-11-24T09:58:48Z,42.805,6.029,13.3064,4.60062,2470.53,2021-11-24T12:00:15Z
2021-11-24T10:01:51Z,42.805,6.029,13.3065,4.60040,2470.567,2021-11-24T12:03:18Z
2021-11-24T10:04:54Z,42.805,6.029,13.3045,4.60047,2470.544,2021-11-24T12:06:21Z
2021-11-24T10:07:57Z,42.805,6.029,13.3063,4.60049,2470.544,2021-11-24T12:09:24Z
2021-11-24T10:11:01Z,42.805,6.029,13.3057,4.60035,2470.567,2021-11-24T12:12:27Z
2021-11-24T10:14:04Z,42.805,6.029,13.3053,4.60044,2470.567,2021-11-24T12:15:30Z
2021-11-24T10:17:07Z,42.805,6.029,13.3060,4.60046,2470.544,2021-11-24T12:18:34Z
2021-11-24T10:20:10Z,42.805,6.029,13.3055,4.60047,2470.567,2021-11-24T12:21:37Z
2021-11-24T10:23:13Z,42.805,6.029,13.3056,4.60069,2470.567,2021-11-24T12:24:40Z
2021-11-24T10:26:16Z,42.805,6.029,13.3049,4.60043,2470.507,2021-11-24T12:27:43Z
2021-11-24T10:29:19Z,42.805,6.029,13.3051,4.60052,2470.567,2021-11-24T12:30:46Z
2021-11-24T10:32:22Z,42.805,6.029,13.3035,4.60053,2470.553,2021-11-24T12:33:49Z
2021-11-24T10:35:26Z,42.805,6.029,13.3046,4.60077,2470.52,2021-11-24T12:36:52Z
2021-11-24T10:38:29Z,42.805,6.029,13.3064,4.60064,2470.553,2021-11-24T12:39:55Z
2021-11-24T10:41:32Z,42.805,6.029,13.3034,4.60084,2470.591,2021-11-24T12:42:59Z
2021-11-24T10:44:35Z,42.805,6.029,13.3024,4.60066,2470.544,2021-11-24T12:46:02Z
2021-11-24T10:47:38Z,42.805,6.029,13.3039,4.60045,2470.497,2021-11-24T12:49:05Z
2021-11-24T10:50:41Z,42.805,6.029,13.3023,4.60055,2470.544,2021-11-24T12:52:08Z
2021-11-24T10:53:44Z,42.805,6.029,13.3040,4.60034,2470.544,2021-11-24T12:55:11Z
2021-11-24T10:56:47Z,42.805,6.029,13.3028,4.60047,2470.544,2021-11-24T12:58:14Z
2021-11-24T10:59:51Z,42.805,6.029,13.3041,4.60039,2470.544,2021-11-24T13:01:17Z
2021-11-24T11:02:54Z,42.805,6.029,13.3041,4.60049,2470.567,2021-11-24T13:04:20Z
2021-11-24T11:05:57Z,42.805,6.029,13.3046,4.60068,2470.544,2021-11-24T13:07:24Z
2021-11-24T11:09:00Z,42.805,6.029,13.3051,4.60065,2470.567,2021-11-24T13:10:27Z
2021-11-24T11:12:03Z,42.805,6.029,13.3056,4.60052,2470.52,2021-11-24T13:13:30Z
2021-11-24T11:15:06Z,42.805,6.029,13.3050,4.60054,2470.53,2021-11-24T13:16:33Z
2021-11-24T11:18:09Z,42.805,6.029,13.3046,4.60040,2470.507,2021-11-24T13:19:36Z
2021-11-24T11:21:12Z,42.805,6.029,13.3067,4.60046,2470.52,2021-11-24T13:22:39Z
2021-11-24T11:24:16Z,42.805,6.029,13.3058,4.60063,2470.544,2021-11-24T13:25:42Z
2021-11-24T11:27:19Z,42.805,6.029,13.3046,4.60045,2470.52,2021-11-24T13:28:45Z
2021-11-24T11:30:22Z,42.805,6.029,13.3056,4.60056,2470.507,2021-11-24T13:31:49Z
2021-11-24T11:33:25Z,42.805,6.029,13.3040,4.60046,2470.52,2021-11-24T13:34:52Z
2021-11-24T11:36:28Z,42.805,6.029,13.3058,4.60041,2470.507,2021-11-24T13:37:55Z
2021-11-24T11:39:31Z,42.805,6.029,13.3038,4.60042,2470.516,2021-11-24T13:40:58Z
2021-11-24T11:42:34Z,42.805,6.029,13.3035,4.60052,2470.507,2021-11-24T13:44:01Z
2021-11-24T11:45:37Z,42.805,6.029,13.3031,4.60053,2470.52,2021-11-24T13:47:04Z
2021-11-24T11:48:41Z,42.805,6.029,13.3041,4.60049,2470.52,2021-11-24T13:50:07Z
2021-11-24T11:51:44Z,42.805,6.029,13.3034,4.60089,2470.507,2021-11-24T13:53:10Z
2021-11-24T11:54:47Z,42.805,6.029,13.3022,4.60097,2470.483,2021-11-24T13:56:14Z
2021-11-24T11:57:50Z,42.805,6.029,13.3024,4.60074,2470.544,2021-11-24T13:59:17Z
2021-11-24T12:00:53Z,42.805,6.029,13.3053,4.60052,2470.507,2021-11-24T14:02:20Z
2021-11-24T12:03:56Z,42.805,6.029,13.3039,4.60063,2470.507,2021-11-24T14:05:23Z
2021-11-24T12:07:00Z,42.805,6.029,13.3029,4.60066,2470.507,2021-11-24T14:08:26Z
2021-11-24T12:10:03Z,42.805,6.029,13.3043,4.60029,2470.497,2021-11-24T14:11:29Z
2021-11-24T12:13:06Z,42.805,6.029,13.3066,4.60039,2470.52,2021-11-24T14:14:33Z
2021-11-24T12:16:09Z,42.805,6.029,13.3071,4.60057,2470.52,2021-11-24T14:17:36Z
2021-11-24T12:19:12Z,42.805,6.029,13.3039,4.60049,2470.53,2021-11-24T14:20:39Z
2021-11-24T12:22:15Z,42.805,6.029,13.3057,4.60066,2470.52,2021-11-24T14:23:42Z
2021-11-24T12:25:18Z,42.805,6.029,13.3040,4.60044,2470.493,2021-11-24T14:26:45Z
2021-11-24T12:28:22Z,42.805,6.029,13.3061,4.60042,2470.544,2021-11-24T14:29:48Z
2021-11-24T12:31:25Z,42.805,6.029,13.3054,4.60039,2470.52,2021-11-24T14:32:51Z
2021-11-24T12:34:28Z,42.805,6.029,13.3040,4.60049,2470.52,2021-11-24T14:35:55Z
2021-11-24T12:37:31Z,42.805,6.029,13.3036,4.60052,2470.507,2021-11-24T14:38:58Z
2021-11-24T12:40:34Z,42.805,6.029,13.3053,4.60067,2470.497,2021-11-24T14:42:01Z
2021-11-24T12:43:37Z,42.805,6.029,13.3035,4.60056,2470.497,2021-11-24T14:45:04Z
2021-11-24T12:46:40Z,42.805,6.029,13.3040,4.60051,2470.507,2021-11-24T14:48:07Z
2021-11-24T12:49:43Z,42.805,6.029,13.3063,4.60059,2470.483,2021-11-24T14:51:10Z
2021-11-24T12:52:47Z,42.805,6.029,13.3063,4.60053,2470.507,2021-11-24T14:54:13Z
2021-11-24T12:55:50Z,42.805,6.029,13.3046,4.60057,2470.497,2021-11-24T14:57:16Z
2021-11-24T12:58:53Z,42.805,6.029,13.3043,4.60058,2470.52,2021-11-24T15:00:20Z
2021-11-24T13:01:56Z,42.805,6.029,13.3052,4.60049,2470.497,2021-11-24T15:03:23Z
2021-11-24T13:04:59Z,42.805,6.029,13.3048,4.60057,2470.52,2021-11-24T15:06:26Z
2021-11-24T13:08:02Z,42.805,6.029,13.3048,4.60053,2470.46,2021-11-24T15:09:29Z
2021-11-24T13:11:05Z,42.805,6.029,13.3063,4.60052,2470.507,2021-11-24T15:12:32Z
2021-11-24T13:14:08Z,42.805,6.029,13.3047,4.60049,2470.483,2021-11-24T15:15:35Z
2021-11-24T13:17:12Z,42.805,6.029,13.3041,4.60053,2470.46,2021-11-24T15:18:38Z
2021-11-24T13:20:15Z,42.805,6.029,13.3038,4.60059,2470.497,2021-11-24T15:21:41Z
2021-11-24T13:23:18Z,42.805,6.029,13.3049,4.60045,2470.474,2021-11-24T15:24:45Z
2021-11-24T13:26:21Z,42.805,6.029,13.3048,4.60050,2470.46,2021-11-24T15:27:48Z
2021-11-24T13:29:24Z,42.805,6.029,13.3033,4.60049,2470.497,2021-11-24T15:30:51Z
2021-11-24T13:32:27Z,42.805,6.029,13.3032,4.60044,2470.474,2021-11-24T15:33:54Z
2021-11-24T13:35:30Z,42.805,6.029,13.3029,4.60062,2470.45,2021-11-24T15:36:57Z
2021-11-24T13:38:33Z,42.805,6.029,13.3026,4.60047,2470.437,2021-11-24T15:40:00Z
2021-11-24T13:41:37Z,42.805,6.029,13.3034,4.60057,2470.474,2021-11-24T15:43:03Z
2021-11-24T13:44:40Z,42.805,6.029,13.3036,4.60040,2470.497,2021-11-24T15:46:06Z
2021-11-24T13:47:43Z,42.805,6.029,13.3092,4.60049,2470.497,2021-11-24T15:49:10Z
2021-11-24T13:50:46Z,42.805,6.029,13.3031,4.60048,2470.46,2021-11-24T15:52:13Z
2021-11-24T13:53:49Z,42.805,6.029,13.3036,4.60048,2470.46,2021-11-24T15:55:16Z
2021-11-24T13:56:52Z,42.805,6.029,13.3031,4.60055,2470.483,2021-11-24T15:58:19Z
2021-11-24T13:59:55Z,42.805,6.029,13.3036,4.60044,2470.483,2021-11-24T16:01:22Z
2021-11-24T14:02:58Z,42.805,6.029,13.3028,4.60038,2470.474,2021-11-24T16:04:25Z
2021-11-24T14:06:02Z,42.805,6.029,13.3026,4.60041,2470.474,2021-11-24T16:07:28Z
2021-11-24T14:09:05Z,42.805,6.029,13.3029,4.60046,2470.46,2021-11-24T16:10:31Z
2021-11-24T14:12:08Z,42.805,6.029,13.3051,4.60043,2470.497,2021-11-24T16:13:35Z
2021-11-24T14:15:11Z,42.805,6.029,13.3045,4.60056,2470.437,2021-11-24T16:16:38Z
2021-11-24T14:18:14Z,42.805,6.029,13.3034,4.60054,2470.497,2021-11-24T16:19:41Z
2021-11-24T14:21:17Z,42.805,6.029,13.3041,4.60052,2470.46,2021-11-24T16:22:44Z
2021-11-24T14:24:20Z,42.805,6.029,13.3048,4.60067,2470.474,2021-11-24T16:25:47Z
2021-11-24T14:27:24Z,42.805,6.029,13.3033,4.60069,2470.437,2021-11-24T16:28:50Z
2021-11-24T14:30:27Z,42.805,6.029,13.3080,4.60066,2470.46,2021-11-24T16:31:53Z
2021-11-24T14:33:30Z,42.805,6.029,13.3031,4.60039,2470.437,2021-11-24T16:34:56Z
2021-11-24T14:36:33Z,42.805,6.029,13.3023,4.60051,2470.46,2021-11-24T16:38:00Z
2021-11-24T14:39:36Z,42.805,6.029,13.3054,4.60050,2470.474,2021-11-24T16:41:03Z
2021-11-24T14:42:39Z,42.805,6.029,13.3031,4.60059,2470.483,2021-11-24T16:44:06Z
2021-11-24T14:45:42Z,42.805,6.029,13.3029,4.60066,2470.46,2021-11-24T16:47:09Z
2021-11-24T14:48:45Z,42.805,6.029,13.3033,4.60052,2470.474,2021-11-24T16:50:12Z
2021-11-24T14:51:49Z,42.805,6.029,13.3037,4.60060,2470.46,2021-11-24T16:53:15Z
2021-11-24T14:54:52Z,42.805,6.029,13.3041,4.60061,2470.46,2021-11-24T16:56:18Z
2021-11-24T14:57:55Z,42.805,6.029,13.3041,4.60047,2470.45,2021-11-24T16:59:22Z
2021-11-24T15:00:58Z,42.805,6.029,13.3052,4.60070,2470.46,2021-11-24T17:02:25Z